Location: Aiyede
(8.4833°N, 4.4500°E)
Time: 22:36:17
(UTC+00:00)

Daily predictions for brighter satellites

Satellite Brightness Start Highest point End
(mag) Time Altitude Azimuth Time Altitude Azimuth Time Altitude Azimuth
Cosmos 1844 Rocket 3.1 17:46:43 10° SSW 17:52:13 69° WNW 17:57:44 10° N
Delta 168 3.7 17:50:28 10° NW 17:56:13 48° NNE 18:00:10 10° E
Cosmos 2278 Rocket 3.7 17:53:28 10° SE 17:56:19 14° ESE 17:59:08 10° ENE
Cosmos 1844 4.0 17:53:52 10° SSW 17:59:36 77° WNW 18:05:18 10° NNE
NOSS 3-4 (A) 3.5 17:55:20 10° SSW 18:01:19 83° WNW 18:07:11 10° NNE
NOSS 3-4 (C) 3.4 17:55:26 10° SSW 18:01:25 85° WNW 18:07:17 10° NNE
USA 234 3.8 17:55:34 10° ENE 18:01:29 37° SE 18:07:25 10° S
Meteor 1-12 Rocket 4.3 17:57:08 10° S 18:03:06 77° E 18:08:58 10° N
SeaSat 1 3.2 18:00:15 10° S 18:05:04 57° WSW 18:09:54 10° NNW
SL-24 R/B 4.3 18:04:02 10° SSE 18:08:11 50° ENE 18:12:24 10° N
Cosmos 1300 Rocket 3.5 18:04:43 10° S 18:09:04 77° E 18:13:27 10° N
USA 116 4.1 18:06:08 10° NNE 18:10:28 88° ESE 18:15:22 10° S
Cosmos 1842 3.1 18:08:25 10° N 18:12:17 81° E 18:16:12 10° S
Okean 1 Rocket 4.4 18:09:07 10° SE 18:12:19 20° E 18:15:32 10° NE
Cosmos 1707 3.9 18:12:20 10° NNE 18:15:18 21° E 18:18:16 10° SE
Feng Yun 1-1 Rocket 4.3 18:10:14 10° SSE 18:15:39 86° W 18:21:09 10° NNW
CZ-4 R/B 4.5 18:12:21 10° SSE 18:16:22 54° ENE 18:20:22 10° N
ARIANE 5 DEB (SYLDA) 4.2 18:17:28 10° SW 18:19:50 17° SSW 18:21:35 10° SSE
Helios 1A Rocket 2.8 18:18:02 10° SSE 18:22:05 75° E 18:26:10 10° N
ATLAS 2AS CENTAUR R/B 3.3 18:15:11 10° SSW 18:22:42 71° WNW 18:30:36 10° NNE
Cosmos 1766 4.5 18:20:39 10° SE 18:23:34 20° E 18:25:22 15° ENE
Okean 2 Rocket 3.6 18:19:06 10° SSW 18:23:34 64° W 18:28:00 10° N
YAOGAN 1 3.1 18:20:51 10° SE 18:24:49 36° ENE 18:28:47 10° N
Chunghua 1 4.4 18:24:36 10° NW 18:28:19 84° SW 18:30:47 20° SE
IRS-1C Rocket 4.3 18:23:10 10° S 18:28:24 75° WSW 18:33:38 10° NNW
Cosmos 1943 3.1 18:28:16 10° NNW 18:33:55 82° ENE 18:39:37 10° SSE
Cosmos 2084 Rocket 3.5 18:29:48 10° NNW 18:34:20 78° ENE 18:38:55 10° SSE
Cosmos 1437 4.3 18:33:53 10° NNW 18:36:38 35° W 18:39:23 10° SSW
CZ-4 R/B 1.4 18:38:09 10° SSE 18:42:21 89° E 18:46:35 10° N
CZ-2D R/B 3.7 18:38:34 10° S 18:42:24 64° WSW 18:46:15 10° NNW
Gbstr 26 Del rocket 4.3 18:37:32 10° SW 18:43:03 65° NW 18:49:54 10° NNE
CZ-2C R/B 3.2 18:39:15 10° SSE 18:44:06 50° ENE 18:49:12 10° N
FUSE 4.3 18:39:17 10° WSW 18:44:30 58° NNW 18:47:40 23° NE
Cosmos 1025 Rocket 3.4 18:40:50 10° NNE 18:44:56 40° E 18:46:22 30° SE
Okean-O 2.8 18:41:44 10° S 18:46:09 71° W 18:50:32 10° NNW
Intelsat 5-3 Rocket 3.2 18:44:50 10° WNW 18:48:40 82° SSW 18:53:20 26° ESE
VEP-3 4.3 18:43:52 10° WNW 18:50:34 71° SSW 19:30:01 10° ESE
VEP-3 4.3 18:43:52 10° WNW 18:50:34 71° SSW 19:30:00 10° ESE
CZ-4C R/B 1.9 18:51:00 10° S 18:54:55 43° SE 18:54:55 43° SE
ARGOS 4.1 19:01:27 29° NE 19:01:27 29° NE 19:04:36 10° N
Cosmos 1867 3.6 18:54:49 10° N 19:00:06 53° ENE 19:01:01 47° ESE
Cosmos 1733 4.3 19:01:53 10° S 19:04:04 33° S 19:04:04 33° S
Aureole 2 Rocket 3.2 19:02:54 10° SSW 19:05:15 42° SW 19:05:15 42° SW
COSMOS 2455 2.7 19:07:21 10° S 19:13:14 60° ESE 19:13:32 59° E
In-Cosmos 22 4.3 19:16:16 10° N 19:21:40 72° W 19:27:12 10° S
Ariane H10+ 4.3 19:14:59 10° WSW 19:22:39 24° SSW 19:23:46 22° S
H-2A R/B 1.9 19:22:41 72° SSW 19:23:07 80° WSW 19:28:05 10° NNW
CZ-2C R/B 3.1 19:18:33 10° N 19:24:06 64° WNW 19:29:37 10° SSW
RESURS DK-1 4.2 19:20:35 10° SSW 19:22:16 24° SSW 19:22:16 24° SSW
SEDSat Delta rocket 4.3 19:20:21 10° WNW 19:25:18 38° SW 19:25:45 37° SSW
Ariane H10 3.8 19:16:14 10° W 19:33:03 54° SSW 19:34:39 47° SSE
Milstar 3 3.6 19:29:19 10° SW 19:36:05 47° SSE 19:36:05 47° SSE
Cosmos 2278 Rocket 3.4 19:34:46 10° SW 19:40:01 40° WNW 19:45:16 10° N
H-10 deb 4.4 20:08:12 10° W 20:27:53 52° WSW 20:27:53 52° WSW
